| time (UTC) | temp F | wind direction | speed knots | gust knots | rain 1hr in | rain 24hr in | rain mn in | humidity % | barometer mb |
| 20260509024511 | 43 | 355 | 3.5 | 7.0 | 0.00 | 0.00 | 0.00 | 79 | 1022.5 |
| 20260509023010 | 43 | 355 | 1.7 | 5.2 | 0.00 | 0.00 | 0.00 | 80 | 1022.6 |
| 20260509021510 | 43 | 355 | 1.7 | 5.2 | 0.00 | 0.00 | 0.00 | 80 | 1022.5 |
| 20260509020009 | 43 | 5 | 0.9 | 4.3 | 0.00 | 0.00 | 0.00 | 80 | 1022.6 |
| 20260509014520 | 43 | 9 | 1.7 | 4.3 | 0.00 | 0.00 | 0.00 | 81 | 1022.7 |
| 20260509013010 | 43 | 5 | 0.9 | 4.3 | 0.00 | 0.00 | 0.00 | 81 | 1022.6 |
| 20260509011511 | 44 | 5 | 0.9 | 4.3 | 0.00 | 0.00 | 0.00 | 80 | 1022.7 |
| 20260509010009 | 44 | 9 | 0.0 | 5.2 | 0.00 | 0.00 | 0.00 | 80 | 1022.7 |
| 20260509004512 | 44 | 23 | 0.9 | 3.5 | 0.00 | 0.00 | 0.00 | 79 | 1022.7 |
| 20260509003009 | 44 | 26 | 0.9 | 3.5 | 0.00 | 0.00 | 0.00 | 79 | 1022.9 |
| 20260509001511 | 45 | 171 | 1.7 | 3.5 | 0.00 | 0.00 | 0.00 | 78 | 1022.9 |
| 20260509000009 | 45 | 171 | 0.0 | 3.5 | 0.00 | 0.00 | 0.00 | 78 | 1022.9 |
| 20260508234509 | 45 | 171 | 0.0 | 0.9 | 0.00 | 0.00 | 0.00 | 78 | 1022.9 |
| 20260508233010 | 46 | 171 | 0.0 | 0.0 | 0.00 | 0.00 | 0.00 | 77 | 1023.0 |
| 20260508231509 | 46 | 171 | 0.0 | 1.7 | 0.00 | 0.00 | 0.00 | 76 | 1023.0 |
| 20260508230009 | 47 | 171 | 0.0 | 0.9 | 0.00 | 0.00 | 0.00 | 75 | 1023.0 |
| 20260508224518 | 47 | 171 | 0.0 | 0.9 | 0.00 | 0.00 | 0.00 | 75 | 1022.9 |
| 20260508223009 | 47 | 171 | 0.0 | 2.6 | 0.00 | 0.00 | 0.00 | 73 | 1023.0 |
| 20260508221505 | 48 | 171 | 0.0 | 0.9 | 0.00 | 0.00 | 0.00 | 73 | 1023.0 |
| 20260508220010 | 48 | 171 | 0.0 | 0.0 | 0.00 | 0.00 | 0.00 | 72 | 1023.0 |
| 20260508214522 | 49 | 171 | 0.0 | 0.0 | 0.00 | 0.00 | 0.00 | 71 | 1023.1 |
| 20260508213010 | 49 | 171 | 0.0 | 0.0 | 0.00 | 0.00 | 0.00 | 71 | 1023.1 |
| 20260508211514 | 49 | 171 | 0.0 | 0.0 | 0.00 | 0.00 | 0.00 | 70 | 1023.0 |
| 20260508210021 | 50 | 171 | 0.0 | 0.0 | 0.00 | 0.00 | 0.00 | 69 | 1023.1 |
| 20260508204510 | 50 | 171 | 0.0 | 0.0 | 0.00 | 0.00 | 0.00 | 69 | 1023.1 |
| 20260508203010 | 50 | 171 | 0.0 | 0.0 | 0.00 | 0.00 | 0.00 | 69 | 1023.1 |
| 20260508201510 | 50 | 171 | 0.0 | 0.0 | 0.00 | 0.00 | 0.00 | 68 | 1023.1 |
| 20260508200011 | 51 | 171 | 0.0 | 1.7 | 0.00 | 0.00 | 0.00 | 68 | 1023.0 |
| 20260508194510 | 51 | 171 | 0.0 | 3.5 | 0.00 | 0.00 | 0.00 | 68 | 1022.9 |
| 20260508193010 | 51 | 171 | 0.0 | 3.5 | 0.00 | 0.00 | 0.00 | 66 | 1022.8 |
| 20260508191509 | 51 | 171 | 0.0 | 4.3 | 0.00 | 0.00 | 0.00 | 62 | 1022.7 |
| 20260508190010 | 52 | 171 | 2.6 | 5.2 | 0.00 | 0.00 | 0.00 | 59 | 1022.6 |
| 20260508184514 | 52 | 171 | 0.0 | 4.3 | 0.00 | 0.00 | 0.00 | 59 | 1022.6 |
| 20260508183010 | 52 | 171 | 2.6 | 6.1 | 0.00 | 0.00 | 0.00 | 57 | 1022.6 |
| 20260508181509 | 53 | 153 | 2.6 | 7.0 | 0.00 | 0.00 | 0.00 | 50 | 1022.5 |
| 20260508180010 | 53 | 144 | 3.5 | 7.0 | 0.00 | 0.00 | 0.00 | 47 | 1022.4 |
| 20260508174512 | 53 | 138 | 5.2 | 11.3 | 0.00 | 0.00 | 0.00 | 46 | 1022.3 |
| 20260508173009 | 54 | 142 | 6.1 | 9.6 | 0.00 | 0.00 | 0.00 | 47 | 1022.3 |
| 20260508171510 | 55 | 184 | 2.6 | 7.0 | 0.00 | 0.00 | 0.00 | 43 | 1022.1 |
| 20260508170010 | 55 | 165 | 4.3 | 8.7 | 0.00 | 0.00 | 0.00 | 44 | 1022.0 |
| 20260508164509 | 56 | 217 | 2.6 | 7.8 | 0.00 | 0.00 | 0.00 | 40 | 1022.0 |
| 20260508163015 | 56 | 171 | 4.3 | 8.7 | 0.00 | 0.00 | 0.00 | 38 | 1022.0 |
| 20260508161509 | 57 | 207 | 5.2 | 8.7 | 0.00 | 0.00 | 0.00 | 36 | 1021.9 |
| 20260508160010 | 56 | 207 | 5.2 | 10.4 | 0.00 | 0.00 | 0.00 | 35 | 1022.0 |
| 20260508154510 | 56 | 186 | 7.8 | 12.2 | 0.00 | 0.00 | 0.00 | 32 | 1021.9 |
| 20260508153017 | 57 | 184 | 7.0 | 11.3 | 0.00 | 0.00 | 0.00 | 35 | 1021.9 |
| 20260508151509 | 57 | 157 | 4.3 | 9.6 | 0.00 | 0.00 | 0.00 | 36 | 1021.8 |
| 20260508150009 | 57 | 181 | 7.0 | 13.0 | 0.00 | 0.00 | 0.00 | 36 | 1022.0 |
| 20260508144510 | 57 | 159 | 6.1 | 12.2 | 0.00 | 0.00 | 0.00 | 36 | 1022.0 |
| 20260508143010 | 57 | 170 | 4.3 | 11.3 | 0.00 | 0.00 | 0.00 | 38 | 1022.1 |
| 20260508141510 | 56 | 162 | 5.2 | 13.9 | 0.00 | 0.00 | 0.00 | 35 | 1022.1 |
| 20260508140009 | 56 | 153 | 7.8 | 13.0 | 0.00 | 0.00 | 0.00 | 37 | 1022.1 |
| 20260508134511 | 56 | 138 | 7.0 | 17.4 | 0.00 | 0.00 | 0.00 | 36 | 1022.2 |
| 20260508133009 | 59 | 196 | 2.6 | 8.7 | 0.00 | 0.00 | 0.00 | 32 | 1022.2 |
| 20260508131511 | 58 | 180 | 2.6 | 6.1 | 0.00 | 0.00 | 0.00 | 32 | 1022.2 |
| 20260508130011 | 56 | 182 | 5.2 | 9.6 | 0.00 | 0.00 | 0.00 | 33 | 1022.4 |
| 20260508124510 | 54 | 165 | 0.9 | 9.6 | 0.00 | 0.00 | 0.00 | 36 | 1022.6 |
| 20260508123019 | 53 | 113 | 4.3 | 13.0 | 0.00 | 0.00 | 0.00 | 36 | 1022.6 |
| 20260508121509 | 54 | 157 | 6.1 | 11.3 | 0.00 | 0.00 | 0.00 | 34 | 1022.6 |
| 20260508120009 | 54 | 171 | 5.2 | 11.3 | 0.00 | 0.00 | 0.00 | 37 | 1022.6 |
| 20260508114509 | 53 | 189 | 5.2 | 9.6 | 0.00 | 0.00 | 0.00 | 38 | 1022.6 |
| 20260508113010 | 53 | 144 | 7.0 | 10.4 | 0.00 | 0.00 | 0.00 | 39 | 1022.5 |
| 20260508111515 | 52 | 163 | 3.5 | 10.4 | 0.00 | 0.00 | 0.00 | 44 | 1022.5 |
| 20260508110024 | 52 | 142 | 5.2 | 11.3 | 0.00 | 0.00 | 0.00 | 45 | 1022.5 |
| 20260508104515 | 53 | 132 | 6.1 | 11.3 | 0.00 | 0.00 | 0.00 | 44 | 1022.3 |
| 20260508103026 | 54 | 165 | 5.2 | 12.2 | 0.00 | 0.00 | 0.00 | 44 | 1022.2 |
| 20260508100010 | 54 | 175 | 9.6 | 14.8 | 0.00 | 0.00 | 0.00 | 34 | 1022.1 |
| 20260508094509 | 54 | 201 | 6.1 | 10.4 | 0.00 | 0.00 | 0.00 | 39 | 1022.0 |
| 20260508093011 | 53 | 153 | 5.2 | 12.2 | 0.00 | 0.00 | 0.00 | 45 | 1022.0 |
| 20260508091514 | 53 | 134 | 3.5 | 9.6 | 0.00 | 0.00 | 0.00 | 50 | 1021.9 |
| 20260508090010 | 52 | 162 | 5.2 | 8.7 | 0.00 | 0.00 | 0.00 | 50 | 1021.9 |
| 20260508084509 | 52 | 168 | 5.2 | 9.6 | 0.00 | 0.00 | 0.00 | 45 | 1021.8 |
| 20260508083009 | 52 | 205 | 0.9 | 4.3 | 0.00 | 0.00 | 0.00 | 48 | 1021.8 |
| 20260508081511 | 52 | 233 | 0.0 | 5.2 | 0.00 | 0.00 | 0.00 | 47 | 1021.7 |
| 20260508074509 | 48 | 192 | 4.3 | 6.1 | 0.00 | 0.00 | 0.00 | 52 | 1021.7 |
| 20260508073013 | 48 | 198 | 1.7 | 6.1 | 0.00 | 0.00 | 0.00 | 50 | 1021.6 |
| 20260508071510 | 48 | 355 | 0.0 | 1.7 | 0.00 | 0.00 | 0.00 | 65 | 1021.5 |
| 20260508070010 | 49 | 360 | 0.0 | 0.9 | 0.00 | 0.00 | 0.00 | 62 | 1021.5 |
| 20260508064510 | 51 | 355 | 0.0 | 0.9 | 0.00 | 0.00 | 0.00 | 55 | 1021.3 |
| 20260508063010 | 48 | 355 | 0.0 | 2.6 | 0.00 | 0.00 | 0.00 | 60 | 1021.3 |
| 20260508061510 | 46 | 355 | 0.0 | 0.9 | 0.00 | 0.00 | 0.00 | 63 | 1021.2 |
| 20260508060012 | 44 | 355 | 0.0 | 2.6 | 0.00 | 0.00 | 0.00 | 64 | 1021.1 |
| 20260508054518 | 42 | 355 | 0.0 | 2.6 | 0.00 | 0.00 | 0.00 | 68 | 1021.1 |
| 20260508053010 | 40 | 355 | 0.0 | 4.3 | 0.00 | 0.00 | 0.00 | 71 | 1021.0 |
| 20260508051511 | 39 | 355 | 0.0 | 4.3 | 0.00 | 0.00 | 0.00 | 76 | 1020.7 |
| 20260508050012 | 37 | 355 | 0.9 | 4.3 | 0.00 | 0.00 | 0.00 | 79 | 1020.8 |
| 20260508044510 | 36 | 355 | 0.9 | 4.3 | 0.00 | 0.00 | 0.00 | 81 | 1020.8 |
| 20260508041514 | 35 | 355 | 0.9 | 3.5 | 0.00 | 0.00 | 0.00 | 81 | 1020.5 |
| 20260508040009 | 35 | 355 | 1.7 | 5.2 | 0.00 | 0.00 | 0.00 | 82 | 1020.4 |
| 20260508034511 | 35 | 355 | 0.0 | 5.2 | 0.00 | 0.00 | 0.00 | 82 | 1020.2 |
| 20260508033013 | 35 | 355 | 1.7 | 7.8 | 0.00 | 0.00 | 0.00 | 82 | 1020.1 |
| 20260508031512 | 34 | 355 | 1.7 | 5.2 | 0.00 | 0.00 | 0.00 | 83 | 1020.1 |
| 20260508030009 | 34 | 360 | 0.9 | 4.3 | 0.00 | 0.00 | 0.00 | 84 | 1019.9 |